Location: Beadle
(51.4667°N, 109.0000°W)
Time: 18:01:17
(UTC+00:00)

DIWATA 2B (PO-101) - Pass Details

Date: 05 July 2022
Orbit: 583 x 599 km, 98.0° (Epoch: 19 August)

Event Time Altitude Azimuth Distance (km) Brightness Sun altitude
Exits shadow 10:15:20 - 222° (SW) 2,091 ? -6.5°
Reaches altitude 10° 10:15:52 10° 227° (SW) 1,940 ? -6.4°
Maximum altitude 10:18:42 18° 270° (W) 1,516 ? -6.1°
Drops below altitude 10° 10:21:34 10° 313° (NW) 1,951 ? -5.8°
Sets 10:24:24 0° 333° (NNW) 2,859 ? -5.6°
